Location: Gensac
(43.2177°N, 1.1313°E)
Time: 16:00:20
(UTC+00:00)

SL-16 R/B - Pass Details

Date: 08 December 2025
Orbit: 841 x 844 km, 71.0° (Epoch: 19 January)

Event Time Altitude Azimuth Distance (km) Brightness Sun altitude
Exits shadow 05:29:05 12° 340° (NNW) 2,307 4.2 -18.6°
Maximum altitude 05:34:18 70° 63° (ENE) 900 2.4 -17.6°
Drops below altitude 10° 05:39:56 10° 147° (SSE) 2,458 5.3 -16.6°
Sets 05:42:23 0° 150° (SSE) 3,389 6.1 -16.2°
